Flag for Canada Weather past 2 weeks in Selkirk, Manitoba, Canada

Now
4 °F

Frigid.


Feels Like: 4 °F
Forecast: -6 / 17 °F
Wind: 2 mph from Southwest

Location: Winnipeg The Forks

Current Time: Jan 30, 2015 at 2:20:35 AM

Latest Report: Jan 30, 2015 at 2:00 AM


Visibility: N/A

Pressure: 30.55 "Hg

Humidity: 70%

Dew point: -4 °F

Location of SelkirkLocation

Historic Weather in Selkirk — Graph

°F

Selkirk temperature yesterday

Maximum temperature yesterday: 16 °F (at 12:00 AM)
Minimum temperature yesterday: 1 °F (at 10:00 PM)
Average temperature yesterday: 6 °F

Past Weeks' High & Low Weather Summary

 TemperatureHumidityPressure
High40 °F (Jan 23, 3:00 PM)100% (Jan 20, 2:00 PM)30.63 "Hg (Jan 20, 2:00 PM)
Low-3 °F (Jan 16, 7:00 AM)62% (Jan 25, 11:00 AM)29.34 "Hg (Jan 17, 3:00 AM)
Average21 °F79%29.96 "Hg
* Reported Jan 15 1:00 AM — Jan 30 1:00 AM, Selkirk, Weather by CustomWeather, © 2014

Note: Actual official high and low records may vary slightly from our data, if they occured in-between our weather recording intervals... More about our weather records

Advertising

Selkirk weather history for previous 24 hours

 ConditionsComfort  
Time TempWeatherWind HumidityBarometerVisibility
1:00 AM
Jan 30
3 °FFrigid.2 mph69%30.57 "HgN/A
12:00 AM3 °FFrigid.3 mph71%30.59 "HgN/A
11:00 PM
Jan 29
3 °FFrigid.2 mph71%30.60 "HgN/A
10:00 PM1 °FFrigid.2 mph73%30.62 "HgN/A
9:00 PM2 °FFrigid.6 mph69%30.63 "HgN/A
8:00 PM2 °FFrigid.5 mph69%30.63 "HgN/A
7:00 PM4 °FFrigid.6 mph63%30.63 "HgN/A
6:00 PM3 °FFrigid.6 mph66%30.63 "HgN/A
5:00 PM4 °FFrigid.7 mph64%30.63 "HgN/A
4:00 PM5 °FFrigid.10 mph64%30.62 "HgN/A
3:00 PM5 °FFrigid.9 mph63%30.60 "HgN/A
2:00 PM5 °FFrigid.10 mph65%30.60 "HgN/A
1:00 PM4 °FFrigid.18 mph72%30.60 "HgN/A
12:00 PM3 °FFrigid.18 mph75%30.60 "HgN/A
11:00 AM3 °FFrigid.18 mph71%30.59 "HgN/A
10:00 AM3 °FFrigid.17 mph72%30.56 "HgN/A
9:00 AM5 °FFrigid.21 mph72%30.53 "HgN/A
8:00 AM5 °FFrigid.20 mph72%30.49 "HgN/A
7:00 AM5 °FFrigid.17 mph80%30.45 "HgN/A
5:00 AM8 °FFrigid.20 mph75%30.37 "HgN/A
4:00 AM10 °FFrigid.18 mph75%30.34 "HgN/A
3:00 AM11 °FCold.14 mph79%30.31 "HgN/A
2:00 AM12 °FCold.17 mph78%30.27 "HgN/A
Weather by CustomWeather, © 2014

See weather overviewHow to use our weather pages